Content
SEND FEEDBACK

United States of America Flag

JASPER, ALABAMA


Home > North America > United States > Alabama
Elevation: 148 meters     Latitude: 33 54N     Longitude: 087 16W

WEATHER
 
SELECT A DAY
Number of Records: 118,068;   Date Range: 2/7/11 - 3/22/16
 
SHARE

PRINT THIS DATA

[ ← Previous Day ]
WEATHER ALMANAC - 31 JANUARY, 2013
[ Next Day → ]
[ °F ]   °C
Weather ElementAverageHighLow
Temperature5.3 °C13 °C (3:15 pm)0 °C (3:15 am)
Dewpoint-1.2 °C0 °C (6:55 pm)-3 °C (2:15 pm)
Humidity67 %93 % (3:15 am)33 % (3:15 pm)
Barometer1021 hPa1023.4 hPa (10:55 am)1017.3 hPa (12:35 am)
Wind Speed8.7 km/h20.4 km/h (12:35 pm)
Wind Gust31.5 km/h (3:35 pm)
Weather ElementAverage
Visibility16.1 km
Wind DirectionSSW (186 °)

Weather ElementTotal
Precipitation---
Heating Degree Days11.8 (Base 18.3)
Averaged from 68 records on 31 January, 2013
WEATHER CONDITIONS BREAKOUT
WIND DIRECTION BREAKOUT
WEATHER BY HOUR - 31 JANUARY, 2013
[ °F ]   °C
Local TimeTemperatureDewpointHumidityBarometerVisibilityWind DirectionWind SpeedGust SpeedPrecipitationEventsConditions
12:35 AM3 °C-1 °C75 %1017.3 hPa16.1 kmWNW (290°)13 km/hPartly Cloudy
12:55 AM2 °C-1 °C81 %1017.6 hPa16.1 kmWNW (300°)11.1 km/hPartly Cloudy
1:15 AM2 °C-1 °C81 %1017.9 hPa16.1 kmWNW (300°)13 km/hClear
1:35 AM2 °C-1 °C81 %1017.9 hPa16.1 kmWNW (290°)9.3 km/hClear
1:55 AM1 °C-1 °C87 %1017.9 hPa16.1 kmWest (270°)5.6 km/hClear
2:15 AM1 °C-1 °C87 %1017.9 hPa16.1 kmCalmClear
2:35 AM1 °C-1 °C87 %1017.9 hPa16.1 kmCalmClear
2:55 AM1 °C-1 °C87 %1017.9 hPa16.1 kmCalmClear
3:15 AM0 °C-1 °C93 %1018.3 hPa16.1 kmCalmClear
3:35 AM0 °C-1 °C93 %1018.3 hPa16.1 kmCalmClear
3:55 AM0 °C-1 °C93 %1018.6 hPa16.1 kmCalmClear
4:15 AM0 °C-1 °C93 %1018.6 hPa16.1 kmCalmClear
4:35 AM0 °C-1 °C93 %1019 hPa16.1 kmSW (230°)7.4 km/hClear
4:55 AM0 °C-1 °C93 %1019.3 hPa16.1 kmWSW (250°)5.6 km/hClear
5:15 AM0 °C-1 °C93 %1019.6 hPa16.1 kmWSW (240°)5.6 km/hPartly Cloudy
5:35 AM0 °C-1 °C93 %1019.6 hPa16.1 kmWest (260°)7.4 km/hClear
5:55 AM0 °C-2 °C87 %1020 hPa16.1 kmWest (260°)7.4 km/hClear
6:15 AM0 °C-2 °C87 %1020 hPa16.1 kmCalmClear
6:55 AM0 °C-2 °C87 %1020.3 hPa16.1 kmWest (270°)5.6 km/hClear
7:15 AM0 °C-2 °C87 %1020.7 hPa16.1 kmWest (270°)5.6 km/hClear
7:35 AM0 °C-1 °C93 %1021 hPa16.1 kmWest (280°)7.4 km/hClear
8:15 AM2 °C-1 °C81 %1021.3 hPa16.1 kmWNW (290°)13 km/hClear
8:35 AM2 °C-1 °C81 %1021.7 hPa16.1 kmWNW (290°)16.7 km/h25.9 km/hClear
8:55 AM3 °C-1 °C75 %1022 hPa16.1 kmWNW (300°)16.7 km/h29.6 km/hClear
9:15 AM4 °C-1 °C70 %1022.4 hPa16.1 kmWNW (290°)16.7 km/h27.8 km/hClear
9:35 AM5 °C-1 °C65 %1022.7 hPa16.1 kmWest (280°)18.5 km/h27.8 km/hClear
9:55 AM6 °C-1 °C61 %1023 hPa16.1 kmWest (280°)16.7 km/hClear
10:15 AM6 °C-1 °C61 %1023 hPa16.1 kmNW (310°)16.7 km/hClear
10:35 AM7 °C-1 °C57 %1023 hPa16.1 kmWNW (300°)18.5 km/hClear
10:55 AM8 °C-1 °C53 %1023.4 hPa16.1 kmWNW (290°)14.8 km/hClear
11:15 AM8 °C-1 °C53 %1023.4 hPa16.1 kmWest (280°)14.8 km/hClear
11:35 AM9 °C-1 °C50 %1022.7 hPa16.1 kmWNW (300°)13 km/hClear
11:55 AM10 °C-1 °C47 %1022.7 hPa16.1 kmWNW (290°)14.8 km/hClear
12:15 PM11 °C-1 °C44 %1022.4 hPa16.1 kmWNW (290°)18.5 km/hClear
12:35 PM11 °C-2 °C41 %1022 hPa16.1 kmWNW (290°)20.4 km/h27.8 km/hClear
12:55 PM12 °C-2 °C38 %1021.7 hPa16.1 kmWNW (300°)14.8 km/hClear
1:15 PM12 °C-2 °C38 %1021.7 hPa16.1 kmWest (280°)18.5 km/hClear
1:35 PM12 °C-2 °C38 %1021.7 hPa16.1 kmWNW (300°)18.5 km/hClear
1:55 PM12 °C-2 °C38 %1021.7 hPa16.1 kmWest (270°)14.8 km/hClear
2:15 PM12 °C-3 °C35 %1021.3 hPa16.1 kmWSW (240°)13 km/hClear
2:35 PM12 °C-2 °C38 %1021.3 hPa16.1 kmWest (280°)13 km/hClear
2:55 PM12 °C-3 °C35 %1021.3 hPa16.1 kmWest (270°)16.7 km/hClear
3:15 PM13 °C-3 °C33 %1021.3 hPa16.1 kmWSW (240°)13 km/hClear
3:35 PM12 °C-3 °C35 %1021 hPa16.1 kmWest (270°)13 km/h31.5 km/hClear
3:55 PM12 °C-3 °C35 %1020.7 hPa16.1 kmWSW (250°)11.1 km/hClear
4:15 PM12 °C-2 °C38 %1021 hPa16.1 kmWest (260°)16.7 km/hClear
4:35 PM12 °C-2 °C38 %1020.7 hPa16.1 kmWSW (250°)9.3 km/hClear
4:55 PM11 °C-2 °C41 %1020.7 hPa16.1 kmSW (230°)13 km/hClear
5:15 PM10 °C-2 °C43 %1020.7 hPa16.1 kmWSW (240°)9.3 km/hClear
5:35 PM9 °C-2 °C46 %1020.7 hPa16.1 kmCalmClear
5:55 PM8 °C-1 °C53 %1020.7 hPa16.1 kmNorthClear
6:15 PM7 °C-2 °C53 %1021 hPa16.1 kmNorthClear
6:35 PM6 °C-1 °C61 %1021 hPa16.1 kmCalmRainLight Rain
6:55 PM5 °C0 °C70 %1021 hPa16.1 kmCalmRainLight Rain
7:15 PM3 °C0 °C81 %1021.3 hPa16.1 kmCalmRainLight Rain
7:35 PM3 °C0 °C81 %1021.7 hPa16.1 kmCalmRainLight Rain
7:55 PM2 °C0 °C87 %1021.3 hPa16.1 kmCalmRainLight Rain
8:15 PM2 °C0 °C87 %1021.7 hPa16.1 kmCalmRainLight Rain
8:35 PM2 °C0 °C87 %1021.7 hPa16.1 kmCalmRainLight Rain
8:55 PM2 °C0 °C87 %1022 hPa16.1 kmSW (220°)5.6 km/hRainLight Rain
9:15 PM4 °C0 °C75 %1022.4 hPa16.1 kmSW (220°)5.6 km/hRainLight Rain
9:35 PM5 °C-1 °C65 %1022.4 hPa16.1 kmWSW (240°)7.4 km/hClear
9:55 PM5 °C0 °C70 %1022.4 hPa16.1 kmWSW (240°)5.6 km/hClear
10:15 PM4 °C0 °C75 %1022.4 hPa16.1 kmCalmClear
10:35 PM4 °C0 °C75 %1022.4 hPa16.1 kmCalmClear
10:55 PM5 °C-1 °C65 %1022.4 hPa16.1 kmCalmClear
11:35 PM6 °C-1 °C61 %1022.4 hPa16.1 kmSW (230°)5.6 km/hClear
11:55 PM6 °C-1 °C61 %1022 hPa16.1 kmSW (230°)9.3 km/hClear
Hourly data recorded from KJFX, located 0 kilometers away from Jasper, Alabama




STORIES FROM OUR PARTNERS